Data for 09/01/2018

Time Sea-Level Adjusted Pressure Absolute Pressure Temperature Relative Humidity Dew Point   
(mb) (inHg) (mb) (inHg) (C) (F) (%) (C) (F)
00:05 1018 30.06 847 25.01 10.7 51.2 59 3 37.4
00:10 1018 30.06 847 25.01 10 50 61 2.9 37.3
00:15 1018 30.06 847 25.01 9.8 49.6 60 2.4 36.3
00:20 1018 30.06 847 25.01 10.1 50.1 58 2.3 36.1
00:25 1018 30.06 847 25.01 10.2 50.3 58 2.3 36.1
00:30 1018 30.06 847 25.01 10.2 50.4 57 2.2 36
00:35 1018 30.06 847 25.01 10.3 50.6 56 2 35.6
00:40 1018 30.06 847 25.01 10.3 50.5 57 2.2 35.9
00:45 1018 30.06 847 25.01 10.1 50.2 58 2.2 35.9
00:50 1018 30.06 847 25.01 10.1 50.1 58 2.1 35.9
00:55 1018 30.06 847 25.01 10.1 50.2 56 1.8 35.3
01:00 1018 30.06 847 25.01 10.2 50.3 55 1.6 34.9
01:05 1018 30.06 847 25.01 10.4 50.7 55 1.7 35.1
01:10 1018 30.06 847 25.01 10.3 50.5 55 1.7 35.1
01:15 1018 30.06 847 25.01 10.3 50.5 55 1.7 35
01:20 1018 30.06 847 25.01 10.3 50.5 54 1.5 34.6
01:25 1018 30.06 847 25.01 10.5 50.8 54 1.5 34.8
01:30 1018 30.06 847 25.01 10.4 50.8 54 1.5 34.7
01:35 1018 30.06 847 25.01 10.5 50.9 53 1.3 34.4
01:40 1018 30.06 847 25.01 10.5 50.9 54 1.6 34.9
01:45 1018 30.06 847 25.01 10.1 50.2 55 1.5 34.7
01:50 1018 30.06 847 25.01 9.9 49.8 57 1.7 35.1
01:55 1018 30.06 847 25.01 9.8 49.6 55 1.2 34.1
02:00 1018 30.06 847 25.01 10.1 50.1 54 1.3 34.3
02:05 1018 30.06 847 25.01 9.8 49.6 56 1.4 34.5
02:10 1018 30.06 847 25.01 9.7 49.5 55 1.2 34.2
02:15 1018 30.06 847 25.01 9.8 49.7 55 1.3 34.3
02:20 1018 30.06 847 25.01 9.9 49.8 56 1.5 34.6
02:25 1018 30.06 847 25.01 10 50 54 1.2 34.1
02:30 1018 30.06 847 25.01 10.1 50.1 54 1.3 34.3
02:35 1018 30.06 847 25.01 10 50 52 0.7 33.2
02:40 1018 30.06 847 25.01 10.4 50.8 52 1 33.9
02:45 1018 30.06 847 25.01 10.2 50.4 52 0.9 33.5
02:50 1018 30.06 847 25.01 9.9 49.7 54 1.1 34
02:55 1018 30.06 847 25.01 9.5 49 54 0.7 33.2
03:00 1018 30.06 847 25.01 9.5 49.2 55 0.9 33.7
03:05 1018 30.06 847 25.01 9.7 49.4 55 1 33.8
03:10 1018 30.06 847 25.01 9.5 49.2 54 0.8 33.5
03:15 1018 30.06 847 25.01 9.6 49.2 54 0.8 33.5
03:20 1018 30.06 847 25.01 9.5 49.1 54 0.7 33.2
03:25 1018 30.06 847 25.01 9.8 49.7 55 1.2 34.1
03:30 1018 30.06 847 25.01 9.7 49.4 57 1.5 34.8
03:35 1018 30.06 847 25.01 9.3 48.7 57 1.2 34.2
03:40 1018 30.06 847 25.01 9.2 48.5 58 1.4 34.4
03:45 1018 30.06 847 25.01 8.8 47.9 59 1.3 34.4
03:50 1018 30.06 847 25.01 8.5 47.3 61 1.4 34.6
03:55 1018 30.06 847 25.01 8.1 46.6 63 1.6 34.9
04:00 1018 30.06 847 25.01 7.7 45.8 66 1.7 35.1
04:05 1018 30.06 847 25.01 7.6 45.7 65 1.4 34.6
04:10 1018 30.06 847 25.01 7.8 46.1 64 1.5 34.8
04:15 1018 30.06 847 25.01 7.8 46 64 1.4 34.5
04:20 1018 30.06 847 25.01 8 46.4 63 1.4 34.6
04:25 1018 30.06 847 25.01 8 46.3 63 1.4 34.5
04:30 1018 30.06 847 25.01 8 46.5 62 1.3 34.3
04:35 1018 30.06 847 25.01 8.1 46.6 62 1.3 34.4
04:40 1018 30.06 847 25.01 7.9 46.2 63 1.3 34.4
04:45 1018 30.06 847 25.01 7.8 46.1 63 1.2 34.1
04:50 1018 30.06 847 25.01 7.6 45.7 65 1.5 34.7
04:55 1018 30.06 847 25.01 7.2 45 66 1.3 34.4
05:00 1018 30.06 847 25.01 7.3 45.1 65 1.2 34.1
05:05 1018 30.06 847 25.01 7.4 45.2 65 1.2 34.1
05:10 1018 30.06 847 25.01 7.4 45.3 64 1.2 34.1
05:15 1018 30.06 847 25.01 7.5 45.5 63 1 33.7
05:20 1018 30.06 847 25.01 7.5 45.5 64 1.2 34.2
05:25 1018 30.06 847 25.01 7.2 44.9 66 1.3 34.4
05:30 1018 30.06 847 25.01 6.8 44.2 68 1.4 34.5
05:35 1018 30.06 847 25.01 6.6 43.8 69 1.3 34.3
05:40 1018 30.06 847 25.01 6.6 43.8 69 1.2 34.2
05:45 1018 30.06 847 25.01 6.7 44.1 67 1.1 34
05:50 1018 30.06 847 25.01 7 44.6 65 0.9 33.7
05:55 1018 30.06 847 25.01 7.3 45.1 63 0.8 33.4
06:00 1018 30.06 847 25.01 7.5 45.5 62 0.8 33.4
06:05 1018 30.06 847 25.01 7.8 46 61 0.7 33.3
06:10 1018 30.06 847 25.01 7.8 46.1 62 0.9 33.7
06:15 1018 30.06 847 25.01 7.7 45.9 62 0.8 33.5
06:20 1018 30.06 847 25.01 7.7 45.9 62 0.9 33.6
06:25 1018 30.06 847 25.01 7.8 46 62 0.9 33.6
06:30 1018 30.06 847 25.01 7.9 46.2 62 1 33.8
06:35 1018 30.06 847 25.01 8 46.3 62 1.1 34
06:40 1018 30.06 847 25.01 8.1 46.6 61 1 33.9
06:45 1018 30.06 847 25.01 8.4 47.1 61 1.2 34.2
06:50 1018 30.06 847 25.01 8.8 47.9 58 1.2 34.1
06:55 1018 30.06 847 25.01 9.2 48.6 57 1.1 34
07:00 1018 30.06 847 25.01 9.8 49.7 55 1.3 34.4
07:05 1018 30.06 847 25.01 10.5 50.8 53 1.4 34.5
07:10 1018 30.06 847 25.01 10.6 51.1 53 1.6 34.9
07:15 1018 30.06 847 25.01 11 51.7 52 1.6 34.8
07:20 1018 30.06 847 25.01 11.7 53 51 1.8 35.2
07:25 1018 30.06 847 25.01 11.7 53 49 1.4 34.5
07:30 1018 30.06 847 25.01 11.5 52.7 49 1.2 34.1
07:35 1018 30.06 847 25.01 11.8 53.2 49 1.5 34.7
07:40 1018 30.06 847 25.01 12.3 54.2 49 2 35.6
07:45 1018 30.06 847 25.01 12.7 54.9 48 2.1 35.7
07:50 1018 30.06 847 25.01 13.2 55.8 44 1.2 34.1
07:55 1018 30.06 847 25.01 13.8 56.8 43 1.6 34.9
08:00 1018 30.06 847 25.01 14.5 58 42 1.8 35.2
08:05 1018 30.06 847 25.01 14.5 58.1 43 2.2 35.9
08:10 1018 30.06 847 25.01 14.2 57.5 42 1.6 34.9
08:15 1018 30.06 847 25.01 14.4 57.8 43 2 35.5
08:20 1018 30.06 847 25.01 14.8 58.7 41 1.7 35
08:25 1018 30.06 847 25.01 15.1 59.3 39 1.4 34.6
08:30 1018 30.06 847 25.01 15.9 60.5 37 1.1 34
08:35 1018 30.06 848 25.04 16.2 61.2 37 1.5 34.6
08:40 1018 30.06 848 25.04 16.4 61.4 36 1.2 34.2
08:45 1018 30.06 848 25.04 16.3 61.4 37 1.6 34.9
08:50 1018 30.06 848 25.04 16.5 61.6 37 1.7 35.1
08:55 1018 30.06 848 25.04 16.4 61.6 40 3 37.5
09:00 1018 30.06 848 25.04 15.3 59.6 41 2.1 35.8
09:05 1018 30.06 848 25.04 16.2 61.2 38 1.9 35.5
09:10 1018 30.06 848 25.04 16.4 61.5 37 1.8 35.2
09:15 1018 30.06 848 25.04 16.8 62.2 37 2 35.7
09:20 1018 30.06 848 25.04 16.9 62.5 38 2.6 36.8
09:25 1018 30.06 848 25.04 16.7 62.1 37 2 35.6
09:30 1018 30.06 848 25.04 17.4 63.3 34 1.5 34.7
09:35 1018 30.06 848 25.04 17.6 63.6 31 0.5 32.9
09:40 1019 30.09 848 25.04 17.2 63 33 1 33.7
09:45 1018 30.06 848 25.04 17.4 63.2 33 1.2 34.1
09:50 1018 30.06 848 25.04 17.2 62.9 35 1.5 34.8
09:55 1018 30.06 848 25.04 17.5 63.6 32 1 33.7
10:00 1018 30.06 848 25.04 17.6 63.6 33 1.2 34.1
10:05 1018 30.06 848 25.04 17.3 63.2 35 1.7 35.1
10:10 1018 30.06 848 25.04 17.2 63 33 0.8 33.5
10:15 1018 30.06 848 25.04 17.6 63.6 33 1.2 34.2
10:20 1018 30.06 848 25.04 18 64.5 32 1.1 33.9
10:25 1018 30.06 848 25.04 18.5 65.3 31 1.1 34
10:30 1018 30.06 848 25.04 18.7 65.6 31 1.3 34.4
10:35 1018 30.06 848 25.04 18.9 66 30 1 33.7
10:40 1018 30.06 848 25.04 19.4 66.9 28 0.6 33.1
10:45 1018 30.06 847 25.01 19.2 66.6 30 1.3 34.4
10:50 1018 30.06 847 25.01 19.1 66.4 28 0.5 33
10:55 1018 30.06 847 25.01 19.3 66.8 29 1.2 34.2
11:00 1018 30.06 847 25.01 19.2 66.6 29 0.9 33.7
11:05 1018 30.06 847 25.01 19.3 66.7 30 1.3 34.4
11:10 1018 30.06 847 25.01 19.3 66.7 30 1.4 34.4
11:15 1018 30.06 847 25.01 19.3 66.8 30 1.4 34.5
11:20 1018 30.06 847 25.01 20 68 28 1.3 34.3
11:25 1018 30.06 847 25.01 20 67.9 30 2.2 36
11:30 1018 30.06 847 25.01 20 68 30 1.9 35.4
11:35 1018 30.06 847 25.01 20.9 69.6 27 1.6 34.8
11:40 1018 30.06 847 25.01 21.3 70.3 27 1.8 35.2
11:45 1018 30.06 847 25.01 21.1 69.9 27 1.5 34.7
11:50 1018 30.06 847 25.01 21.3 70.3 28 2.3 36.1
11:55 1018 30.06 847 25.01 21.4 70.6 27 1.7 35.1
12:00 1018 30.06 847 25.01 20.8 69.5 27 1.5 34.6
12:05 1018 30.06 847 25.01 21.7 71 27 1.9 35.4
12:10 1018 30.06 847 25.01 21.3 70.4 27 2 35.6
12:15 1018 30.06 847 25.01 20.7 69.3 28 1.8 35.2
12:20 1018 30.06 847 25.01 20.6 69.1 27 1.3 34.3
12:25 1018 30.06 847 25.01 20.6 69 27 1.1 33.9
12:30 1018 30.06 847 25.01 21.3 70.3 26 1.2 34.1
12:35 1018 30.06 847 25.01 21.8 71.2 26 1.9 35.4
12:40 1017 30.03 847 25.01 21.1 69.9 29 2.3 36.2
12:45 1017 30.03 847 25.01 21.5 70.6 26 1.6 34.9
12:50 1017 30.03 847 25.01 21.9 71.5 26 1.9 35.5
12:55 1017 30.03 847 25.01 22.4 72.3 25 1.7 35
13:00 1017 30.03 847 25.01 22.4 72.3 25 1.6 34.9
13:05 1017 30.03 847 25.01 22.7 72.8 25 1.9 35.5
13:10 1017 30.03 847 25.01 22.3 72.1 27 2.7 36.8
13:15 1017 30.03 847 25.01 21.6 70.9 26 1.6 34.9
13:20 1017 30.03 846 24.98 22.3 72.2 24 1.1 33.9
13:25 1017 30.03 846 24.98 22.9 73.2 24 1.6 34.9
13:30 1017 30.03 846 24.98 23.5 74.3 23 1.4 34.5
13:35 1017 30.03 846 24.98 22.8 73.1 25 1.9 35.5
13:40 1017 30.03 846 24.98 23.4 74.2 24 2.1 35.8
13:45 1017 30.03 846 24.98 23.1 73.5 24 1.4 34.6
13:50 1017 30.03 846 24.98 23 73.3 24 1.8 35.3
13:55 1017 30.03 846 24.98 21.7 71.1 26 1.7 35.1
14:00 1017 30.03 846 24.98 21.8 71.3 25 1.2 34.1
14:05 1017 30.03 846 24.98 22.4 72.3 23 0.5 32.8
14:10 1017 30.03 846 24.98 23.5 74.3 23 1.3 34.3
14:15 1017 30.03 846 24.98 24.1 75.4 21 0.7 33.3
14:20 1017 30.03 846 24.98 23.7 74.6 22 0.7 33.2
14:25 1017 30.03 846 24.98 23.8 74.8 21 0.6 33
14:30 1017 30.03 846 24.98 23.4 74.1 20 -0.6 30.9
14:35 1017 30.03 846 24.98 23.4 74.1 23 1.4 34.5
14:40 1017 30.03 846 24.98 23.5 74.2 21 0.1 32.2
14:45 1017 30.03 846 24.98 23.6 74.5 21 0.3 32.5
14:50 1017 30.03 846 24.98 23 73.5 22 0.6 33.1
14:55 1017 30.03 846 24.98 23.5 74.2 22 1 33.9
15:00 1017 30.03 846 24.98 24.2 75.5 21 1 33.8
15:05 1017 30.03 846 24.98 24.2 75.6 21 0.9 33.6
15:10 1017 30.03 846 24.98 23.4 74 22 0.6 33.1
15:15 1017 30.03 846 24.98 23.4 74 20 -0.6 30.9
15:20 1017 30.03 846 24.98 23.8 74.8 21 0.1 32.2
15:25 1017 30.03 846 24.98 24 75.3 21 0.3 32.6
15:30 1017 30.03 846 24.98 23.8 74.8 20 -0 32
15:35 1017 30.03 846 24.98 24 75.2 19 -0.9 30.4
15:40 1017 30.03 846 24.98 23.8 74.8 20 -0.1 31.7
15:45 1017 30.03 846 24.98 22.9 73.2 20 -0.7 30.7
15:50 1017 30.03 846 24.98 22.9 73.3 20 -1.2 29.9
15:55 1017 30.03 846 24.98 23.5 74.3 19 -1.3 29.7
16:00 1017 30.03 846 24.98 24.4 75.8 17 -2 28.4
16:05 1017 30.03 846 24.98 24.5 76 17 -1.6 29.2
16:10 1017 30.03 846 24.98 24.6 76.2 18 -1.5 29.4
16:15 1016 30 846 24.98 24.4 76 17 -1.8 28.7
16:20 1016 30 846 24.98 24.8 76.6 17 -1.8 28.7
16:25 1016 30 846 24.98 24.8 76.7 17 -1.9 28.6
16:30 1016 30 846 24.98 25 77 16 -2.7 27.1
16:35 1016 30 846 24.98 24.5 76.2 17 -1.8 28.8
16:40 1016 30 846 24.98 24.4 75.9 16 -2.5 27.6
16:45 1016 30 846 24.98 24.2 75.6 17 -2.2 28.1
16:50 1016 30 846 24.98 24.3 75.8 16 -3.1 26.5
16:55 1016 30 845 24.95 24.6 76.3 17 -1.9 28.6
17:00 1016 30 845 24.95 24.5 76 16 -2.4 27.6
17:05 1016 30 845 24.95 24.6 76.3 15 -3.2 26.2
17:10 1016 30 845 24.95 24.3 75.8 17 -1.9 28.7
17:15 1016 30 845 24.95 24.3 75.7 18 -1 30.2
17:20 1016 30 845 24.95 24 75.2 18 -1.7 28.9
17:25 1016 30 845 24.95 23.3 74 18 -1.8 28.7
17:30 1016 30 845 24.95 22.8 73.1 18 -2.5 27.5
17:35 1016 30 845 24.95 22.5 72.5 19 -1.8 28.7
17:40 1016 30 845 24.95 22.3 72.2 20 -1.7 29
17:45 1016 30 845 24.95 22.3 72.2 20 -1.6 29.2
17:50 1016 30 845 24.95 22.2 72 19 -2.4 27.7
17:55 1016 30 845 24.95 22.2 71.9 19 -2.1 28.2
18:00 1016 30 845 24.95 22.1 71.8 21 -1.2 29.9
18:05 1016 30 846 24.98 22 71.5 20 -1.9 28.6
18:10 1016 30 846 24.98 21.7 71.1 21 -1.4 29.4
18:15 1016 30 846 24.98 21.6 71 20 -2.1 28.2
18:20 1016 30 846 24.98 21.5 70.8 21 -1.8 28.7
18:25 1016 30 846 24.98 21.5 70.7 21 -1.6 29.1
18:30 1017 30.03 846 24.98 21.4 70.5 21 -1.9 28.6
18:35 1017 30.03 846 24.98 21.3 70.4 20 -2 28.3
18:40 1016 30 846 24.98 21.3 70.3 21 -1.8 28.7
18:45 1017 30.03 846 24.98 21.2 70.1 20 -2.4 27.7
18:50 1017 30.03 846 24.98 21.2 70.1 20 -2.4 27.7
18:55 1017 30.03 846 24.98 21.2 70.1 20 -2.5 27.5
19:00 1017 30.03 846 24.98 21.2 70.1 22 -1.2 29.8
19:05 1017 30.03 846 24.98 21 69.8 27 1.5 34.7
19:10 1017 30.03 846 24.98 20.3 68.6 31 2.8 37.1
19:15 1017 30.03 846 24.98 18.9 66 35 3.3 37.9
19:20 1017 30.03 846 24.98 18.1 64.5 37 3.4 38.2
19:25 1017 30.03 846 24.98 17.4 63.4 38 3.2 37.8
19:30 1017 30.03 846 24.98 17 62.6 38 2.9 37.2
19:35 1017 30.03 846 24.98 16.7 62 38 2.6 36.7
19:40 1017 30.03 847 25.01 16.3 61.4 39 2.3 36.2
19:45 1017 30.03 847 25.01 16.1 60.9 40 2.7 36.8
19:50 1018 30.06 847 25.01 15.8 60.5 40 2.5 36.5
19:55 1018 30.06 847 25.01 15.7 60.2 43 3.1 37.6
20:00 1018 30.06 847 25.01 15.3 59.6 43 2.9 37.3
20:05 1018 30.06 847 25.01 15.1 59.1 44 3 37.4
20:10 1018 30.06 847 25.01 15.1 59.2 41 2.1 35.8
20:15 1018 30.06 847 25.01 15.4 59.6 41 2.1 35.8
20:20 1018 30.06 847 25.01 15.2 59.4 41 2.2 36
20:25 1018 30.06 847 25.01 15.1 59.2 42 2.2 36
20:30 1018 30.06 847 25.01 14.8 58.6 43 2.5 36.6
20:35 1018 30.06 848 25.04 14.2 57.5 49 3.6 38.5
20:40 1018 30.06 848 25.04 13.5 56.3 51 3.6 38.4
20:45 1019 30.09 848 25.04 13.1 55.6 51 3.4 38.1
20:50 1019 30.09 848 25.04 12.8 55.1 52 3.1 37.6
20:55 1019 30.09 848 25.04 12.8 55 51 2.9 37.1
21:00 1019 30.09 848 25.04 13.1 55.5 47 2.1 35.8
21:05 1019 30.09 848 25.04 13.6 56.4 43 1.4 34.6
21:10 1019 30.09 848 25.04 13.7 56.7 45 2.2 35.9
21:15 1019 30.09 848 25.04 13.5 56.2 46 2.1 35.9
21:20 1019 30.09 848 25.04 13.3 56 43 1 33.8
21:25 1019 30.09 848 25.04 13.3 55.9 43 1.2 34.1
21:30 1019 30.09 848 25.04 13.2 55.7 42 0.8 33.4
21:35 1019 30.09 849 25.07 13.6 56.4 40 0.3 32.6
21:40 1019 30.09 849 25.07 13.7 56.6 41 0.7 33.3
21:45 1019 30.09 849 25.07 13.5 56.3 42 0.9 33.7
21:50 1020 30.12 849 25.07 13.5 56.2 41 0.4 32.8
21:55 1020 30.12 849 25.07 13.5 56.2 41 0.5 32.9
22:00 1020 30.12 849 25.07 13.4 56.1 42 1 33.7
22:05 1020 30.12 849 25.07 13 55.4 44 1 33.8
22:10 1020 30.12 849 25.07 12.7 54.9 44 0.8 33.4
22:15 1020 30.12 849 25.07 12.6 54.8 45 1 33.8
22:20 1020 30.12 849 25.07 12.5 54.4 46 1.1 34
22:25 1020 30.12 849 25.07 12.2 54 47 1.2 34.2
22:30 1020 30.12 849 25.07 11.9 53.5 48 1.4 34.5
22:35 1020 30.12 849 25.07 11.9 53.3 47 1 33.8
22:40 1020 30.12 849 25.07 11.9 53.5 47 1 33.9
22:45 1020 30.12 849 25.07 11.7 53.1 49 1.4 34.4
22:50 1020 30.12 849 25.07 11.6 52.8 48 1.1 33.9
22:55 1020 30.12 849 25.07 11.7 53 46 0.4 32.7
23:00 1020 30.12 849 25.07 12.3 54.2 41 -0.6 30.9
23:05 1020 30.12 849 25.07 13.2 55.8 38 -0.7 30.7
23:10 1020 30.12 849 25.07 13.7 56.6 36 -1 30.1
23:15 1020 30.12 849 25.07 14.1 57.3 36 -0.7 30.7
23:20 1020 30.12 849 25.07 14 57.2 36 -0.8 30.6
23:25 1020 30.12 849 25.07 13.8 56.8 38 -0.3 31.4
23:30 1020 30.12 849 25.07 13.5 56.4 37 -0.7 30.8
23:35 1020 30.12 849 25.07 13.8 56.8 37 -0.7 30.8
23:40 1020 30.12 849 25.07 13.7 56.7 37 -0.8 30.6
23:45 1020 30.12 850 25.1 13.7 56.7 37 -0.8 30.6
23:50 1020 30.12 850 25.1 13.7 56.6 37 -0.7 30.8
23:55 1020 30.12 850 25.1 13.6 56.4 38 -0.5 31.1
24:00 1020 30.12 850 25.1 13.5 56.3 37 -0.7 30.7